User: anonymous   Login
Location: Unnamed
(48.6007°N, 2.4808°E)
Time: 16:34:52
(UTC+01:00)
Language:

ITUPSAT 1 - Orbit

View from above orbital plane
View from above orbital plane
View from above satellite
View from above satellite

Ground track
Ground track

The orbit data is extracted from the following two-line orbital elements,

1 35935U 09051E   23078.89114600  .00001359  00000-0  31650-3 0  9995
2 35935  98.5380 308.4723 0007060 304.0709  55.9817 14.56474502715964
Epoch (UTC): 19 March 2023 21:23:15
Eccentricity: 0.0007060
inclination: 98.5380°
perigee height: 699 km
apogee height: 709 km
right ascension of ascending node: 308.4723°
argument of perigee: 304.0709°
revolutions per day: 14.56474502
mean anomaly at epoch: 55.9817°
orbit number at epoch: 71596

The dashed part of the orbit path shows where the satellite is in the earth's shadow,  

DLR